Hondo, TX

11:41 AM CST on December 12, 2019 (GMT -0600)
Hondo Municipal

Weather History for KHDO - October, 2019

Change the Weather History Date:

Tuesday, October 8, 2019

  Actual Average Record
Temperature  
Mean Temperature 74 °F -  
Max Temperature 89 °F 80 °F 91 °F (2014)
Min Temperature 60 °F 59 °F 41 °F (2000)
Cooling Degree Days 8    
Growing Degree Days 24 (Base 50)    
Moisture  
Dew Point 56 °F    
Average Humidity 56    
Maximum Humidity 86    
Minimum Humidity 33    
Precipitation  
Precipitation 0.00 in - - ()
Sea Level Pressure  
Sea Level Pressure 30.00 in    
Wind  
Wind Speed 7 mph (ENE)    
Max Wind Speed 10 mph    
Max Gust Speed -    
Visibility 10 miles    
Events      
Averages and records for this station are not official NWS values.
T = Trace of Precipitation, MM = Missing Value Source: NWS Daily Summary

Daily Weather History Graph

Daily Weather History Graph

Search for Another Location

Airport or City:

Astronomy

Oct. 08, 2019 Rise Set
Actual Time 7:33 AM CDT 7:14 PM CDT
Civil Twilight 7:09 AM CDT 7:38 PM CDT
Nautical Twilight 6:42 AM CDT 8:05 PM CDT
Astronomical Twilight 6:14 AM CDT 8:33 PM CDT
Moon 4:46 PM CDT (10/8) 2:54 AM CDT (10/8)
Length of Visible Light 12h 28m
Length of Day
11h 40m
Waxing Gibbous, 78% of the Moon is Illuminated
Oct 8
Waxing Gibbous
Oct 13
Full
Oct 21
Last Quarter
Oct 27
New
Nov 4
First Quarter

Hourly Weather History & Observations

Time (CDT) Temp. Heat Index Dew Point Humidity Pressure Visibility Wind Dir Wind Speed Gust Speed Precip Events Conditions
12:51 AM 66.0 °F - 55.0 °F 68% 30.06 in 10.0 mi ENE 4.6 mph - N/A   Clear
1:51 AM 64.0 °F - 55.0 °F 73% 30.06 in 10.0 mi NNE 8.1 mph - N/A   Clear
2:51 AM 64.0 °F - 55.9 °F 75% 30.06 in 10.0 mi NE 6.9 mph - N/A   Clear
3:51 AM 64.9 °F - 57.0 °F 75% 30.04 in 10.0 mi NE 8.1 mph - N/A   Clear
4:51 AM 64.0 °F - 57.0 °F 78% 30.04 in 10.0 mi ENE 6.9 mph - N/A   Clear
5:51 AM 63.0 °F - 57.0 °F 81% 30.04 in 10.0 mi NE 9.2 mph - N/A   Clear
6:51 AM 61.0 °F - 55.9 °F 83% 30.05 in 10.0 mi NNE 5.8 mph - N/A   Clear
7:51 AM 60.1 °F - 55.9 °F 86% 30.06 in 10.0 mi NNE 5.8 mph - N/A   Clear
8:51 AM 66.9 °F - 57.9 °F 73% 30.08 in 10.0 mi ENE 8.1 mph - N/A   Clear
9:51 AM 71.1 °F - 57.0 °F 61% 30.09 in 10.0 mi East 9.2 mph - N/A   Clear
10:51 AM 75.0 °F - 57.0 °F 53% 30.09 in 10.0 mi ENE 10.4 mph - N/A   Clear
11:51 AM 78.1 °F - 55.0 °F 45% 30.07 in 10.0 mi SE 8.1 mph - N/A   Clear
12:51 PM 79.0 °F - 54.0 °F 42% 30.04 in 10.0 mi SSE 4.6 mph - N/A   Clear
1:51 PM 84.0 °F 82.9 °F 55.0 °F 37% 30.01 in 10.0 mi ENE 5.8 mph - N/A   Clear
2:51 PM 87.1 °F 85.3 °F 55.0 °F 33% 29.96 in 10.0 mi North - - N/A   Clear
3:51 PM 87.1 °F 85.3 °F 55.0 °F 33% 29.94 in 10.0 mi NNE 4.6 mph - N/A   Clear
4:51 PM 87.1 °F 85.7 °F 55.9 °F 35% 29.91 in 10.0 mi Variable 3.5 mph - N/A   Clear
5:51 PM 87.1 °F 85.7 °F 55.9 °F 35% 29.91 in 10.0 mi Variable 4.6 mph - N/A   Clear
6:51 PM 84.0 °F 83.0 °F 55.9 °F 38% 29.91 in 10.0 mi SE 9.2 mph - N/A   Clear
7:51 PM 80.1 °F 80.4 °F 57.0 °F 45% 29.92 in 10.0 mi ESE 6.9 mph - N/A   Clear
8:51 PM 79.0 °F - 55.9 °F 45% 29.93 in 10.0 mi ESE 10.4 mph - N/A   Clear
9:51 PM 77.0 °F - 55.0 °F 47% 29.94 in 10.0 mi ESE 9.2 mph - N/A   Clear
10:51 PM 75.0 °F - 55.0 °F 50% 29.94 in 10.0 mi East 6.9 mph - N/A   Clear
11:51 PM 73.0 °F - 54.0 °F 51% 29.93 in 10.0 mi ESE 6.9 mph - N/A   Clear